This is the latest recevied weather packets stored in our database for station/object VE6EN. If no packets are shown the sender has not sent any weather packets the latest 10 day(s).
| Time | Temp. | Humidity | Pressure | Rain* | Wind** | Luminosity | Snow |
|---|---|---|---|---|---|---|---|
| 1787480403 | 17.78° C | 58% | 1009.3 hPa | 0 mm | - | - | - |
| 1787479800 | 17.78° C | 59% | 1009.3 hPa | 0 mm | - | - | - |
| 1787479202 | 17.78° C | 59% | 1009.4 hPa | 0 mm | - | - | - |
| 1787478604 | 17.78° C | 60% | 1009.3 hPa | 0 mm | - | - | - |
| 1787478001 | 17.22° C | 60% | 1009.2 hPa | 0 mm | - | - | - |
| 1787477400 | 16.67° C | 62% | 1009.2 hPa | 0 mm | - | - | - |
| 1787476802 | 16.67° C | 64% | 1009.4 hPa | 0 mm | - | - | - |
| 1787476203 | 16.67° C | 64% | 1009.5 hPa | 0 mm | - | - | - |
| 1787475602 | 16.67° C | 65% | 1009.5 hPa | 0 mm | - | - | - |
| 1787475001 | 16.67° C | 65% | 1009.7 hPa | 0 mm | - | - | - |
| 1787474403 | 16.67° C | 66% | 1009.8 hPa | 0 mm | - | - | - |
| 1787473800 | 16.67° C | 67% | 1009.9 hPa | 0 mm | - | - | - |
| 1787473203 | 16.67° C | 69% | 1009.9 hPa | 0 mm | - | - | - |
| 1787472604 | 16.67° C | 72% | 1009.9 hPa | 0 mm | - | - | - |
| 1787472000 | 16.67° C | 72% | 1010.2 hPa | 0 mm | - | - | - |
| 1787471403 | 16.67° C | 71% | 1010.2 hPa | 0 mm | - | - | - |
| 1787470803 | 16.67° C | 70% | 1010.2 hPa | 0 mm | - | - | - |
| 1787470203 | 17.22° C | 70% | 1010.2 hPa | 0 mm | - | - | - |
| 1787469603 | 17.22° C | 69% | 1010.2 hPa | 0 mm | - | - | - |
| 1787469003 | 17.78° C | 67% | 1010.2 hPa | 0 mm | - | - | - |
| 1787468403 | 17.78° C | 67% | 1010.4 hPa | 0 mm | - | - | - |
| 1787467803 | 17.78° C | 67% | 1010.4 hPa | 0 mm | - | - | - |
| 1787467203 | 17.78° C | 66% | 1010.4 hPa | 0 mm | - | - | - |
| 1787466604 | 18.33° C | 66% | 1010.4 hPa | 0 mm | - | - | - |
| 1787466004 | 18.33° C | 65% | 1010.5 hPa | 0 mm | - | - | - |
* Rain latest hour (hover to see other rain measurements)
** Current wind speed in m/s (hover to see current wind gust speed)